N4390S KLGB-KCMA

Flight info

Callsign N4390S
Flight time N/A
Altitude 4500
Route VFR FF
Aircraft P28A/L-VGD/C

Departure

Time N/A
Airport Long Beach International Airport (KLGB)

Arrival

Time 2026-05-05 14:45
Airport Camarillo International Airport (KCMA)
Time Latitude Longitude Altitude Speed Heading
2026-05-05 14:29 34.07016 -118.56763 4494 ft 116 kts 303°
2026-05-05 14:29 34.07449 -118.57582 4540 ft 114 kts 303°
2026-05-05 14:30 34.07874 -118.58392 4558 ft 115 kts 302°
2026-05-05 14:30 34.08300 -118.59216 4577 ft 116 kts 303°
2026-05-05 14:30 34.08735 -118.60049 4519 ft 121 kts 303°
2026-05-05 14:30 34.09197 -118.60931 4410 ft 127 kts 303°
2026-05-05 14:31 34.09661 -118.61822 4418 ft 122 kts 302°
2026-05-05 14:31 34.10110 -118.62689 4372 ft 123 kts 303°
2026-05-05 14:31 34.10554 -118.63554 4399 ft 119 kts 302°
2026-05-05 14:31 34.10987 -118.64400 4427 ft 117 kts 302°
2026-05-05 14:32 34.11427 -118.65253 4396 ft 120 kts 302°
2026-05-05 14:32 34.11845 -118.66114 4441 ft 117 kts 298°
2026-05-05 14:32 34.12239 -118.66982 4405 ft 120 kts 299°
2026-05-05 14:32 34.12633 -118.67865 4433 ft 118 kts 297°
2026-05-05 14:33 34.12958 -118.68790 4423 ft 119 kts 293°
2026-05-05 14:33 34.13272 -118.69717 4436 ft 118 kts 292°
2026-05-05 14:33 34.13584 -118.70641 4433 ft 119 kts 293°
2026-05-05 14:33 34.13826 -118.71585 4433 ft 119 kts 284°
2026-05-05 14:34 34.14030 -118.72560 4435 ft 119 kts 284°
2026-05-05 14:34 34.14228 -118.73541 4450 ft 119 kts 285°
2026-05-05 14:34 34.14423 -118.74509 4456 ft 119 kts 284°
2026-05-05 14:34 34.14617 -118.75474 4467 ft 119 kts 285°
2026-05-05 14:35 34.14809 -118.76445 4488 ft 118 kts 284°
2026-05-05 14:35 34.15001 -118.77415 4477 ft 119 kts 284°
2026-05-05 14:35 34.15214 -118.78381 4479 ft 118 kts 287°
2026-05-05 14:35 34.15436 -118.79332 4477 ft 119 kts 287°
2026-05-05 14:36 34.15663 -118.80299 4487 ft 119 kts 287°
2026-05-05 14:36 34.15888 -118.81266 4498 ft 119 kts 287°
2026-05-05 14:36 34.16111 -118.82225 4503 ft 119 kts 287°
2026-05-05 14:36 34.16332 -118.83184 4515 ft 119 kts 287°
2026-05-05 14:37 34.16559 -118.84160 4518 ft 119 kts 287°
2026-05-05 14:37 34.16780 -118.85122 4543 ft 118 kts 287°
2026-05-05 14:37 34.16999 -118.86088 4542 ft 119 kts 287°
2026-05-05 14:37 34.17215 -118.87044 4557 ft 118 kts 286°
2026-05-05 14:38 34.17440 -118.88030 4438 ft 125 kts 287°
2026-05-05 14:38 34.17659 -118.88987 4306 ft 114 kts 288°
2026-05-05 14:38 34.17856 -118.89874 4119 ft 105 kts 290°
2026-05-05 14:38 34.18130 -118.90691 3813 ft 108 kts 295°
2026-05-05 14:39 34.18419 -118.91513 3610 ft 102 kts 295°
2026-05-05 14:39 34.18697 -118.92304 3381 ft 104 kts 295°
2026-05-05 14:39 34.18980 -118.93095 3218 ft 102 kts 295°
2026-05-05 14:39 34.19262 -118.93877 3052 ft 101 kts 295°
2026-05-05 14:40 34.19542 -118.94653 2871 ft 102 kts 295°
2026-05-05 14:40 34.19828 -118.95448 2697 ft 101 kts 295°
2026-05-05 14:40 34.20103 -118.96228 2538 ft 102 kts 295°
2026-05-05 14:40 34.20377 -118.97005 2398 ft 100 kts 295°
2026-05-05 14:41 34.20650 -118.97787 2240 ft 100 kts 295°
2026-05-05 14:41 34.20935 -118.98556 2099 ft 98 kts 296°
2026-05-05 14:41 34.21184 -118.99312 1977 ft 97 kts 292°
2026-05-05 14:41 34.21302 -119.00124 1813 ft 98 kts 277°
2026-05-05 14:42 34.21302 -119.00941 1650 ft 98 kts 272°
2026-05-05 14:42 34.21298 -119.01761 1487 ft 98 kts 274°
2026-05-05 14:42 34.21302 -119.02589 1325 ft 97 kts 274°
2026-05-05 14:42 34.21322 -119.03406 1150 ft 99 kts 275°
2026-05-05 14:43 34.21355 -119.04240 982 ft 98 kts 274°
2026-05-05 14:43 34.21349 -119.05047 847 ft 97 kts 268°
2026-05-05 14:43 34.21350 -119.05880 657 ft 94 kts 275°
2026-05-05 14:43 34.21356 -119.06628 455 ft 87 kts 272°
2026-05-05 14:44 34.21361 -119.07339 325 ft 77 kts 272°
2026-05-05 14:44 34.21362 -119.07984 210 ft 75 kts 271°
2026-05-05 14:44 34.21367 -119.08586 108 ft 71 kts 271°
2026-05-05 14:44 34.21374 -119.09110 71 ft 50 kts 272°
2026-05-05 14:45 34.21375 -119.09435 66 ft 18 kts 263°
2026-05-05 14:45 34.21316 -119.09543 65 ft 10 kts 216°
2026-05-05 14:45 34.21286 -119.09563 65 ft 3 kts 198°
2026-05-05 14:45 34.21242 -119.09572 65 ft 9 kts 180°
2026-05-05 14:46 34.21165 -119.09546 65 ft 13 kts 145°
2026-05-05 14:46 34.21107 -119.09452 66 ft 11 kts 104°
2026-05-05 14:46 34.21104 -119.09379 66 ft 9 kts 96°
2026-05-05 14:46 34.21100 -119.09298 67 ft 9 kts 93°
2026-05-05 14:47 34.21084 -119.09242 68 ft 7 kts 157°
2026-05-05 14:47 34.21070 -119.09255 67 ft 1 kts
2026-05-05 14:47 34.21075 -119.09245 67 ft 0 kts 358°